BREEZE-M DEB (TANK)

基本信息
目录编号:
28188
目录名称:
BREEZE-M DEB (TANK)
国际标识:
2004-008B
轨道中心:
EARTH
物体状态:
在轨
发射日期:
2004-03-15 UTC
轨道信息
数据来源: 国际轨道数据
星历时间: 2026-07-14T07:59:12+0800
半长轴: 13139.719km
偏心率: 0.4914356
轨道倾角: 49.509°
近地点辐角: 222.399°
升交点赤经: 54.199°
平近点角: 86.946°
近地点: 304.256km
远地点: 13218.908km
周期: 249.827分钟
每日圈数: 5.763996
详细信息
发射场:
TTMTR
轨道高度:
LEO
数据来源:
AOE Integration Group
参考系:
TEME
时间系统:
UTC
历元类型:
SGP4
2D轨道图
3D轨道图
轨道高度分析图
轨道倾角分析图
轨道综合分析图
查看轨道综合分析图